Weather History for KRKD - October, 2013

Change the Weather History Date:

Monday, October 7, 2013

  Actual Average Record
Temperature  
Mean Temperature 56 °F -  
Max Temperature 62 °F 56 °F 69 °F (1997)
Min Temperature 51 °F 41 °F 30 °F (2011)
Degree Days  
Heating Degree Days 8    
Growing Degree Days 6 (Base 50)    
Moisture  
Dew Point 57 °F    
Average Humidity 95    
Maximum Humidity 100    
Minimum Humidity 76    
Precipitation  
Precipitation 0.66 in - - ()
Sea Level Pressure  
Sea Level Pressure 30.03 in    
Wind  
Wind Speed 12 mph (SE)    
Max Wind Speed 20 mph    
Max Gust Speed 31 mph    
Visibility 6 miles    
Events      
Averages and records for this station are not official NWS values.
T = Trace of Precipitation, MM = Missing Value Source: NWS Daily Summary

Daily Weather History Graph

Daily Weather History Graph

Search for Another Location

Airport or City:

Trip Planner

Search our weather history database for the weather conditions in past years. The results will help you decide how hot, cold, wet, or windy it might be!

Date:

Astronomy

Oct. 07, 2013 Rise Set
Actual Time 6:41 AM EDT 6:06 PM EDT
Civil Twilight 6:12 AM EDT 6:34 PM EDT
Nautical Twilight 5:39 AM EDT 7:08 PM EDT
Astronomical Twilight 5:05 AM EDT 7:41 PM EDT
Moon 9:34 AM EDT (10/7) 7:41 PM EDT (10/7)
Length of Visible Light 12h 22m
Length of Day
11h 24m
Waxing Crescent, 8% of the Moon is Illuminated
Oct 7
Waxing Crescent
Oct 11
First Quarter
Oct 18
Full
Oct 26
Last Quarter
Nov 3
New

Hourly Weather History & Observations

Time (EDT) Temp. Dew Point Humidity Pressure Visibility Wind Dir Wind Speed Gust Speed Precip Events Conditions
12:15 AM 51.8 °F 46.4 °F 82% 30.24 in 10.0 mi ESE 12.7 mph - N/A   Overcast
12:35 AM 51.8 °F 44.6 °F 76% 30.24 in 10.0 mi ESE 9.2 mph - N/A   Overcast
12:55 AM 51.8 °F 46.4 °F 82% 30.23 in 10.0 mi East 11.5 mph - N/A   Overcast
1:15 AM 51.8 °F 46.4 °F 82% 30.23 in 10.0 mi East 12.7 mph - N/A   Overcast
1:35 AM 51.8 °F 48.2 °F 88% 30.22 in 10.0 mi East 13.8 mph - N/A   Overcast
1:55 AM 51.8 °F 48.2 °F 88% 30.21 in 10.0 mi East 13.8 mph 18.4 mph N/A   Overcast
2:15 AM 51.8 °F 50.0 °F 94% 30.20 in 7.0 mi East 9.2 mph - N/A   Overcast
2:35 AM 51.8 °F 50.0 °F 94% 30.20 in 8.0 mi East 10.4 mph - N/A   Overcast
2:55 AM 53.6 °F 51.8 °F 94% 30.19 in 7.0 mi ESE 11.5 mph - N/A   Overcast
3:15 AM 53.6 °F 51.8 °F 94% 30.19 in 9.0 mi ESE 12.7 mph - N/A   Overcast
3:35 AM 53.6 °F 51.8 °F 94% 30.18 in 10.0 mi ESE 15.0 mph - N/A   Overcast
3:55 AM 53.6 °F 51.8 °F 94% 30.18 in 10.0 mi ESE 15.0 mph - 0.01 in   Overcast
4:15 AM 53.6 °F 51.8 °F 94% 30.17 in 9.0 mi ESE 11.5 mph - 0.01 in   Overcast
4:35 AM 53.6 °F 51.8 °F 94% 30.17 in 7.0 mi East 12.7 mph - 0.01 in   Overcast
4:55 AM 53.6 °F 51.8 °F 94% 30.16 in 7.0 mi East 9.2 mph - 0.02 in   Overcast
5:15 AM 53.6 °F 51.8 °F 94% 30.16 in 7.0 mi East 10.4 mph - N/A   Overcast
5:35 AM 53.6 °F 51.8 °F 94% 30.15 in 10.0 mi East 10.4 mph - N/A   Overcast
5:55 AM 53.6 °F 51.8 °F 94% 30.15 in 9.0 mi East 11.5 mph 17.3 mph N/A   Overcast
6:15 AM 53.6 °F 51.8 °F 94% 30.15 in 10.0 mi East 10.4 mph - 0.01 in   Overcast
6:35 AM 53.6 °F 51.8 °F 94% 30.14 in 8.0 mi East 10.4 mph - 0.01 in   Overcast
6:55 AM 53.6 °F 53.6 °F 100% 30.14 in 8.0 mi East 9.2 mph - 0.01 in   Overcast
7:15 AM 53.6 °F 53.6 °F 100% 30.14 in 8.0 mi ENE 8.1 mph - N/A   Overcast
7:35 AM 53.6 °F 53.6 °F 100% 30.13 in 9.0 mi East 9.2 mph - 0.01 in   Overcast
7:55 AM 55.4 °F 53.6 °F 94% 30.12 in 10.0 mi ENE 8.1 mph - 0.01 in   Overcast
8:15 AM 55.4 °F 53.6 °F 94% 30.11 in 10.0 mi East 9.2 mph - N/A   Overcast
8:35 AM 55.4 °F 55.4 °F 100% 30.11 in 10.0 mi SE 8.1 mph - N/A   Overcast
8:55 AM 57.2 °F 55.4 °F 94% 30.10 in 10.0 mi East 4.6 mph - N/A   Overcast
9:15 AM 57.2 °F 55.4 °F 94% 30.10 in 10.0 mi SE 10.4 mph - N/A   Overcast
9:35 AM 57.2 °F 57.2 °F 100% 30.09 in 6.0 mi SSE 9.2 mph - 0.02 in   Overcast
9:55 AM 57.2 °F 57.2 °F 100% 30.08 in 5.0 mi SSE 11.5 mph 20.7 mph 0.02 in   Overcast
10:15 AM 59.0 °F 57.2 °F 94% 30.09 in 3.0 mi South 9.2 mph 19.6 mph 0.10 in   Overcast
10:35 AM 57.2 °F 57.2 °F 100% 30.08 in 3.0 mi South 8.1 mph 16.1 mph 0.36 in   Overcast
10:55 AM 59.0 °F 57.2 °F 94% 30.07 in 9.0 mi SSW 9.2 mph 18.4 mph 0.52 in   Overcast
11:15 AM 59.0 °F 57.2 °F 94% 30.06 in 7.0 mi South 6.9 mph - N/A   Overcast
11:35 AM 59.0 °F 57.2 °F 94% 30.06 in 7.0 mi South 10.4 mph - N/A   Overcast
11:55 AM 60.8 °F 57.2 °F 88% 30.05 in 8.0 mi South 10.4 mph - N/A   Overcast
12:15 PM 60.8 °F 59.0 °F 94% 30.04 in 8.0 mi SSE 12.7 mph 23.0 mph N/A   Overcast
12:35 PM 60.8 °F 60.8 °F 100% 30.03 in 8.0 mi SSE 13.8 mph 20.7 mph N/A   Overcast
12:55 PM 60.8 °F 59.0 °F 94% 30.01 in 8.0 mi SSE 15.0 mph 25.3 mph N/A   Overcast
1:15 PM 60.8 °F 59.0 °F 94% 30.00 in 9.0 mi SSE 16.1 mph 24.2 mph N/A   Overcast
1:35 PM 60.8 °F 60.8 °F 100% 29.99 in 8.0 mi SSE 18.4 mph 23.0 mph N/A   Overcast
1:55 PM 60.8 °F 60.8 °F 100% 29.99 in 8.0 mi SSE 16.1 mph 26.5 mph N/A   Overcast
2:15 PM 60.8 °F 60.8 °F 100% 29.97 in 9.0 mi SSE 13.8 mph 25.3 mph N/A   Overcast
2:35 PM 60.8 °F 60.8 °F 100% 29.96 in 9.0 mi SSE 19.6 mph 25.3 mph N/A   Overcast
2:55 PM 60.8 °F 60.8 °F 100% 29.96 in 9.0 mi SSE 18.4 mph 28.8 mph N/A   Overcast
3:15 PM 60.8 °F 60.8 °F 100% 29.95 in 8.0 mi SSE 17.3 mph 23.0 mph N/A   Overcast
3:35 PM 60.8 °F 60.8 °F 100% 29.94 in 7.0 mi SSE 18.4 mph 27.6 mph N/A   Overcast
3:55 PM 60.8 °F 60.8 °F 100% 29.93 in 5.0 mi SSE 16.1 mph 24.2 mph N/A   Overcast
4:15 PM 60.8 °F 60.8 °F 100% 29.93 in 3.0 mi SSE 15.0 mph 31.1 mph N/A   Overcast
4:35 PM 60.8 °F 59.0 °F 94% 29.92 in 3.0 mi SSE 18.4 mph 26.5 mph N/A   Overcast
4:55 PM 60.8 °F 59.0 °F 94% 29.92 in 0.2 mi SSE 17.3 mph 27.6 mph N/A   Overcast
5:15 PM 60.8 °F 59.0 °F 94% 29.91 in 0.2 mi South 15.0 mph 24.2 mph N/A   Overcast
5:35 PM 60.8 °F 60.8 °F 100% 29.91 in 0.2 mi SSE 18.4 mph 27.6 mph N/A   Overcast
5:55 PM 60.8 °F 59.0 °F 94% 29.91 in 0.2 mi SSE 15.0 mph 25.3 mph N/A   Overcast
6:15 PM 60.8 °F 60.8 °F 100% 29.91 in 0.2 mi South 15.0 mph 21.9 mph N/A   Overcast
6:35 PM 60.8 °F 60.8 °F 100% 29.90 in 0.8 mi SSE 17.3 mph 23.0 mph N/A   Overcast
6:55 PM 60.8 °F 60.8 °F 100% 29.90 in 0.5 mi SSE 15.0 mph 20.7 mph N/A   Overcast
7:15 PM 60.8 °F 59.0 °F 94% 29.89 in 0.5 mi South 11.5 mph 17.3 mph N/A   Overcast
7:35 PM 62.6 °F 60.8 °F 94% 29.89 in 0.8 mi South 12.7 mph 21.9 mph N/A   Overcast
7:55 PM 60.8 °F 60.8 °F 100% 29.88 in 0.8 mi South 13.8 mph 21.9 mph N/A   Overcast
8:15 PM 62.6 °F 62.6 °F 100% 29.87 in 1.8 mi South 12.7 mph 24.2 mph N/A   Overcast
8:35 PM 60.8 °F 60.8 °F 100% 29.87 in 1.0 mi South 13.8 mph 24.2 mph N/A   Overcast
8:55 PM 60.8 °F 59.0 °F 94% 29.87 in 0.8 mi South 15.0 mph 26.5 mph N/A   Overcast
9:15 PM 60.8 °F 60.8 °F 100% 29.86 in 0.8 mi South 15.0 mph 24.2 mph N/A   Overcast
9:35 PM 62.6 °F 62.6 °F 100% 29.85 in 1.0 mi South 15.0 mph 26.5 mph N/A   Overcast
9:55 PM 62.6 °F 60.8 °F 94% 29.84 in 0.8 mi South 19.6 mph 27.6 mph N/A   Overcast
10:15 PM 60.8 °F 60.8 °F 100% 29.83 in 1.0 mi South 13.8 mph 26.5 mph N/A   Overcast
10:35 PM 60.8 °F 60.8 °F 100% 29.83 in 3.0 mi South 12.7 mph 25.3 mph N/A   Overcast
10:55 PM 60.8 °F 60.8 °F 100% 29.83 in 3.0 mi South 15.0 mph 21.9 mph N/A   Overcast
11:15 PM 62.6 °F 60.8 °F 94% 29.83 in 3.0 mi South 15.0 mph 25.3 mph N/A   Overcast
11:35 PM 62.6 °F 62.6 °F 100% 29.82 in 3.0 mi South 16.1 mph 23.0 mph N/A   Overcast
11:55 PM 62.6 °F 60.8 °F 94% 29.82 in 4.0 mi South 17.3 mph 25.3 mph 0.07 in   Overcast